Regional Weather Roundup
Issued by NWS Northern Indiana

Home | Current Version | Previous Version | Graphics & Text | Print | Product List | Glossary On
Versions: 1 2 3 4 5 6 7 8 9 10 11 12 13 14 15 16 17 18 19 20 21 22 23 24 25 26 27 28 29 30 31 32 33 34 35 36 37 38 39 40 41 42 43 44 45 46 47 48 49 50
000
ASUS43 KIWX 060610
RWRIWX

KIWX WEATHER ROUNDUP
NATIONAL WEATHER SERVICE NORTHERN INDIANA
200 AM EDT FRI MAY 06 2016

NOTE: "FAIR" INDICATES FEW OR NO CLOUDS BELOW 12,000 FEET WITH NO
SIGNIFICANT WEATHER AND/OR OBSTRUCTIONS TO VISIBILITY.

* THESE STATIONS ARE NOT UNDER NWS QUALITY CONTROL. THEY ALSO MAY NOT
  REPORT WEATHER SUCH AS PRECIPITATION OR FOG.

INZ001>027-060700-
NORTHERN INDIANA

CITY           SKY/WX    TMP DP  RH WIND       PRES   REMARKS
GARY*          CLEAR     42  42 100 CALM      29.99S
VALPARAISO     CLEAR     42  38  85 W3        29.99S
6HR MIN TEMP:  42; 6HR MAX TEMP:  52;

MICHIGAN CITY*   N/A     37  37 100 CALM      29.99S FOG
LAPORTE*       CLEAR     41  41 100 CALM      29.99S
6HR MIN TEMP:  40; 6HR MAX TEMP:  52;

KNOX*          CLEAR     37  36  93 CALM      29.98F
SOUTH BEND     CLEAR     40  36  86 CALM      29.98S
6HR MIN TEMP:  39; 6HR MAX TEMP:  52;

GOSHEN         CLEAR     42  37  82 NW6       29.96S
6HR MIN TEMP:  42; 6HR MAX TEMP:  57;

MONTICELLO*    CLEAR     43  38  82 NW3       29.98S
6HR MIN TEMP:  43; 6HR MAX TEMP:  58;

LOGANSPORT*    CLEAR     45  39  81 NW3       29.98S
ROCHESTER*     CLEAR     46  41  81 W3        29.98S
WARSAW*        CLEAR     43  37  81 W3        29.97S
ANGOLA*          N/A     46  43  87 NW3       29.94S
FORT WAYNE     CLEAR     49  40  71 NW8       29.95S
6HR MIN TEMP:  49; 6HR MAX TEMP:  62;

HUNTINGTON*    CLEAR    N/A N/A N/A CALM      29.95S
PERU/GRISSOM   CLEAR     47  41  79 NW6       29.96R
6HR MIN TEMP:  47; 6HR MAX TEMP:  59;

MARION*        CLEAR     45  41  86 NW6       29.96F
6HR MIN TEMP:  -1; 6HR MAX TEMP:  82;


$$
INZ028>050-060700-
CENTRAL INDIANA

CITY           SKY/WX    TMP DP  RH WIND       PRES   REMARKS
LAFAYETTE      CLEAR     42  41  96 CALM      29.99R
6HR MIN TEMP:  42; 6HR MAX TEMP:  59;

KOKOMO*        PTCLDY    45  39  81 CALM      29.97S
6HR MIN TEMP:  45; 6HR MAX TEMP:  61;

MUNCIE*        CLEAR     48  41  76 NW3       29.95S
6HR MIN TEMP:  48; 6HR MAX TEMP:  62; 6HR PCP: TRACE;

INDIANAPOLIS   PTCLDY    48  40  73 N5        29.96R
6HR MIN TEMP:  48; 6HR MAX TEMP:  61;


$$
MIZ043>046-050>051-056>058-064>065-071>073-077>080-060700-
SOUTHWEST LOWER MICHIGAN

CITY           SKY/WX    TMP DP  RH WIND       PRES   REMARKS
BATTLE CREEK   CLEAR     46  37  71 W3        29.95S
6HR MIN TEMP:  46; 6HR MAX TEMP:  61;

BENTON HARBOR  CLEAR     38  35  89 CALM      29.98S
6HR MIN TEMP:  37; 6HR MAX TEMP:  48;

COLDWATER*     CLEAR     47  39  74 CALM      29.95R
6HR MIN TEMP:  45; 6HR MAX TEMP:  61;

HILLSDALE*     PTCLDY    48  40  71 NW3       29.94R
6HR MIN TEMP:  48; 6HR MAX TEMP:  61;

HOLLAND        CLEAR    N/A N/A N/A W3        29.97R
GRAND RAPIDS   CLEAR     50  37  61 NW3       29.95S
6HR MIN TEMP:  50; 6HR MAX TEMP:  64;

KALAMAZOO      CLEAR     44  35  70 CALM      29.96R
6HR MIN TEMP:  43; 6HR MAX TEMP:  60;

STURGIS*       CLEAR     45  36  70 CALM      29.95S
6HR MIN TEMP:  45; 6HR MAX TEMP:  59;

THREE RIVERS*  FAIR      45  37  72 CALM      29.96S
6HR MIN TEMP:  44; 6HR MAX TEMP:  58;


$$
OHZ001>008-015>018-024>025-060700-
NORTHWEST OHIO

CITY           SKY/WX    TMP DP  RH WIND       PRES   REMARKS
WAUSEON*         N/A     50 N/A N/A NW7       29.92S
DEFIANCE       CLEAR     52  41  66 NW6       29.93R
6HR MIN TEMP:  52; 6HR MAX TEMP:  64;

FINDLAY        CLEAR     47  37  68 NW5       29.90R
6HR MIN TEMP:  47; 6HR MAX TEMP:  59;

TOLEDO EXPRESS CLEAR     49  39  68 NW5       29.91R
6HR MIN TEMP:  47; 6HR MAX TEMP:  63;

TOLEDO METCALF CLEAR     52  35  52 N3        29.91S
6HR MIN TEMP:  46; 6HR MAX TEMP:  61;

LIMA           MOCLDY    48  41  76 N5        29.91R
6HR MIN TEMP:  45; 6HR MAX TEMP:  58;


$$
AND FOR LAKE MICHIGAN COASTAL AND OPEN LAKE BUOY OBSERVATIONS

STATION/POSITION TEMP    WIND        PRES    VSBY  WAVE
                 AIR SEA DIR/SP/G                  HT/PER
                 (F)     (DEG/KT/KT) (MB)    (MI)  (FT/S)
CALUMET HARBOR    46     160/  2/  2 1014.9F
MICHIGAN CITY     45     240/  5/  6   N/A
BURNS HARBOR      45     200/  2/  4 1015.9F
SAINT JOSEPH      43      CALM  /  2 1016.3S
SOUTH LAKE BUOY   41 40  240/  6/  8 1015.2S         1/ 5
4 MI NW BRIDGMAN  45 47                N/A           2/ 5

$$
&&



USA.gov is the U.S. government's official web portal to all federal, state and local government web resources and services.